| time (UTC) | temp F | wind direction | speed knots | gust knots | rain 1hr in | rain 24hr in | rain mn in | humidity % | barometer mb |
| 20260507084526 | 50 | 360 | 0.9 | 9.6 | 0.00 | 0.00 | 0.00 | 55 | 1011.5 |
| 20260507083059 | 49 | 294 | 0.0 | 3.5 | 0.00 | 0.00 | 0.00 | 49 | 1011.6 |
| 20260507081556 | 50 | 302 | 0.0 | 4.3 | 0.00 | 0.00 | 0.00 | 43 | 1011.7 |
| 20260507080054 | 49 | 271 | 0.0 | 0.0 | 0.00 | 0.00 | 0.00 | 38 | 1011.5 |
| 20260507074552 | 50 | 261 | 0.0 | 0.0 | 0.00 | 0.00 | 0.00 | 37 | 1010.9 |
| 20260507073050 | 51 | 200 | 0.0 | 0.0 | 0.00 | 0.00 | 0.00 | 34 | 1010.6 |
| 20260507071552 | 51 | 200 | 0.0 | 1.7 | 0.00 | 0.00 | 0.00 | 33 | 1010.9 |
| 20260507070059 | 51 | 160 | 0.0 | 0.9 | 0.00 | 0.00 | 0.00 | 33 | 1010.9 |
| 20260507064546 | 51 | 136 | 0.0 | 0.0 | 0.00 | 0.00 | 0.00 | 31 | 1010.6 |
| 20260507063034 | 53 | 152 | 0.0 | 3.5 | 0.00 | 0.00 | 0.00 | 31 | 1010.3 |
| 20260507061529 | 54 | 149 | 0.0 | 6.1 | 0.00 | 0.00 | 0.00 | 27 | 1010.3 |
| 20260507060027 | 54 | 208 | 0.0 | 0.0 | 0.00 | 0.00 | 0.00 | 27 | 1010.5 |
| 20260507054525 | 53 | 202 | 0.9 | 8.7 | 0.00 | 0.00 | 0.00 | 27 | 1010.8 |
| 20260507053022 | 53 | 246 | 0.0 | 11.3 | 0.00 | 0.00 | 0.00 | 30 | 1011.7 |
| 20260507051533 | 54 | 202 | 0.0 | 4.3 | 0.00 | 0.00 | 0.00 | 24 | 1011.4 |
| 20260507050020 | 53 | 171 | 0.0 | 0.0 | 0.00 | 0.00 | 0.00 | 26 | 1011.4 |
| 20260507044520 | 53 | 158 | 0.0 | 0.0 | 0.00 | 0.00 | 0.00 | 26 | 1011.4 |
| 20260507043009 | 52 | 158 | 0.0 | 0.0 | 0.00 | 0.00 | 0.00 | 27 | 1011.5 |
| 20260507041508 | 53 | 165 | 0.0 | 2.6 | 0.00 | 0.00 | 0.00 | 27 | 1011.7 |
| 20260507040006 | 53 | 176 | 0.0 | 0.0 | 0.00 | 0.00 | 0.00 | 26 | 1011.5 |
| 20260507034506 | 53 | 169 | 0.0 | 4.3 | 0.00 | 0.00 | 0.00 | 27 | 1011.3 |
| 20260507033004 | 54 | 180 | 0.0 | 3.5 | 0.00 | 0.00 | 0.00 | 25 | 1011.3 |
| 20260507031502 | 54 | 161 | 0.0 | 0.0 | 0.00 | 0.00 | 0.00 | 25 | 1011.3 |
| 20260507030100 | 54 | 167 | 0.0 | 0.9 | 0.00 | 0.00 | 0.00 | 24 | 1011.2 |
| 20260507024601 | 55 | 163 | 0.0 | 3.5 | 0.00 | 0.00 | 0.00 | 24 | 1011.2 |
| 20260507023043 | 56 | 171 | 0.0 | 0.0 | 0.00 | 0.00 | 0.00 | 23 | 1011.4 |
| 20260507021547 | 57 | 169 | 0.0 | 2.6 | 0.00 | 0.00 | 0.00 | 23 | 1011.2 |
| 20260507020039 | 57 | 176 | 0.0 | 1.7 | 0.00 | 0.00 | 0.00 | 22 | 1011.2 |
| 20260507014543 | 58 | 180 | 0.9 | 4.3 | 0.00 | 0.00 | 0.00 | 22 | 1011.2 |
| 20260507013037 | 59 | 172 | 0.0 | 7.0 | 0.00 | 0.00 | 0.00 | 21 | 1011.1 |
| 20260507011542 | 60 | 161 | 0.9 | 9.6 | 0.00 | 0.00 | 0.00 | 20 | 1011.2 |
| 20260507010040 | 60 | 192 | 1.7 | 8.7 | 0.00 | 0.00 | 0.00 | 20 | 1011.3 |
| 20260507004534 | 60 | 136 | 1.7 | 7.0 | 0.00 | 0.00 | 0.00 | 20 | 1011.5 |
| 20260507003021 | 60 | 139 | 0.9 | 8.7 | 0.00 | 0.00 | 0.00 | 20 | 1011.7 |
| 20260507001519 | 60 | 155 | 0.9 | 7.8 | 0.00 | 0.00 | 0.00 | 19 | 1011.9 |
| 20260507000018 | 60 | 188 | 0.0 | 5.2 | 0.00 | 0.00 | 0.00 | 20 | 1012.0 |
| 20260506234517 | 60 | 170 | 0.9 | 7.0 | 0.00 | 0.00 | 0.00 | 19 | 1012.3 |
| 20260506233015 | 60 | 140 | 0.9 | 6.1 | 0.00 | 0.00 | 0.00 | 20 | 1012.4 |
| 20260506231515 | 60 | 169 | 0.0 | 6.1 | 0.00 | 0.00 | 0.00 | 20 | 1012.7 |
| 20260506230014 | 59 | 116 | 0.0 | 8.7 | 0.00 | 0.00 | 0.00 | 21 | 1012.8 |
| 20260506224511 | 59 | 147 | 0.9 | 8.7 | 0.00 | 0.00 | 0.00 | 21 | 1012.9 |
| 20260506223007 | 59 | 171 | 0.0 | 4.3 | 0.00 | 0.00 | 0.00 | 21 | 1013.1 |
| 20260506221555 | 59 | 138 | 0.0 | 11.3 | 0.00 | 0.00 | 0.00 | 21 | 1013.4 |
| 20260506220053 | 58 | 119 | 0.0 | 6.1 | 0.00 | 0.00 | 0.00 | 21 | 1013.7 |
| 20260506214551 | 59 | 158 | 1.7 | 7.0 | 0.00 | 0.00 | 0.00 | 22 | 1014.2 |
| 20260506213046 | 58 | 121 | 0.0 | 8.7 | 0.00 | 0.00 | 0.00 | 23 | 1014.4 |
| 20260506211550 | 57 | 156 | 0.0 | 9.6 | 0.00 | 0.00 | 0.00 | 22 | 1014.8 |
| 20260506210041 | 57 | 167 | 0.0 | 3.5 | 0.00 | 0.00 | 0.00 | 22 | 1015.2 |
| 20260506204540 | 57 | 132 | 0.0 | 7.8 | 0.00 | 0.00 | 0.00 | 22 | 1015.4 |
| 20260506203038 | 57 | 136 | 1.7 | 10.4 | 0.00 | 0.00 | 0.00 | 23 | 1015.7 |
| 20260506201527 | 56 | 180 | 0.0 | 10.4 | 0.00 | 0.00 | 0.00 | 22 | 1015.9 |
| 20260506200021 | 55 | 120 | 1.7 | 11.3 | 0.00 | 0.00 | 0.00 | 26 | 1016.2 |
| 20260506194519 | 54 | 132 | 0.9 | 7.8 | 0.00 | 0.00 | 0.00 | 27 | 1016.5 |
| 20260506193017 | 53 | 201 | 1.7 | 9.6 | 0.00 | 0.00 | 0.00 | 27 | 1016.7 |
| 20260506191516 | 53 | 148 | 0.0 | 7.0 | 0.00 | 0.00 | 0.00 | 28 | 1016.9 |
| 20260506190014 | 52 | 136 | 0.9 | 7.8 | 0.00 | 0.00 | 0.00 | 27 | 1017.5 |
| 20260506184521 | 51 | 167 | 0.9 | 8.7 | 0.00 | 0.00 | 0.00 | 28 | 1017.8 |
| 20260506183010 | 50 | 276 | 0.0 | 7.0 | 0.00 | 0.00 | 0.00 | 31 | 1017.9 |
| 20260506181552 | 51 | 205 | 0.0 | 8.7 | 0.00 | 0.00 | 0.00 | 32 | 1018.3 |
| 20260506180050 | 50 | 277 | 0.0 | 8.7 | 0.00 | 0.00 | 0.00 | 34 | 1018.4 |
| 20260506174535 | 49 | 221 | 0.0 | 3.5 | 0.00 | 0.00 | 0.00 | 37 | 1019.0 |
| 20260506173032 | 48 | 148 | 0.0 | 6.1 | 0.00 | 0.00 | 0.00 | 36 | 1019.3 |
| 20260506171533 | 48 | 190 | 0.0 | 3.5 | 0.00 | 0.00 | 0.00 | 36 | 1019.4 |
| 20260506170030 | 47 | 213 | 0.0 | 7.0 | 0.00 | 0.00 | 0.00 | 36 | 1019.6 |
| 20260506164529 | 47 | 150 | 0.0 | 3.5 | 0.00 | 0.00 | 0.00 | 38 | 1019.5 |
| 20260506163027 | 46 | 196 | 0.0 | 2.6 | 0.00 | 0.00 | 0.00 | 40 | 1019.5 |
| 20260506161527 | 46 | 222 | 0.0 | 2.6 | 0.00 | 0.00 | 0.00 | 41 | 1019.8 |
| 20260506160027 | 45 | 159 | 0.0 | 0.0 | 0.00 | 0.00 | 0.00 | 42 | 1020.1 |
| 20260506154514 | 45 | 60 | 0.0 | 0.9 | 0.00 | 0.00 | 0.00 | 44 | 1020.2 |
| 20260506153013 | 44 | 196 | 0.0 | 0.0 | 0.00 | 0.00 | 0.00 | 46 | 1020.5 |
| 20260506151513 | 43 | 197 | 0.0 | 0.0 | 0.00 | 0.00 | 0.00 | 49 | 1020.7 |
| 20260506150013 | 41 | 200 | 0.0 | 1.7 | 0.00 | 0.00 | 0.00 | 50 | 1020.8 |
| 20260506144525 | 39 | 202 | 0.0 | 0.0 | 0.00 | 0.00 | 0.00 | 57 | 1021.0 |
| 20260506143012 | 37 | 238 | 0.0 | 0.0 | 0.00 | 0.00 | 0.00 | 61 | 1021.2 |
| 20260506141512 | 35 | 238 | 0.0 | 0.0 | 0.00 | 0.00 | 0.00 | 65 | 1021.4 |
| 20260506140011 | 33 | 238 | 0.0 | 0.0 | 0.00 | 0.00 | 0.00 | 68 | 1021.4 |
| 20260506134559 | 31 | 238 | 0.0 | 0.0 | 0.00 | 0.00 | 0.00 | 70 | 1021.4 |
| 20260506133134 | 29 | 238 | 0.0 | 0.0 | 0.00 | 0.00 | 0.00 | 73 | 1021.3 |
| 20260506131557 | 28 | 238 | 0.0 | 0.0 | 0.00 | 0.00 | 0.00 | 75 | 1021.2 |
| 20260506130136 | 27 | 238 | 0.0 | 0.0 | 0.00 | 0.00 | 0.00 | 76 | 1021.0 |
| 20260506124554 | 26 | 238 | 0.0 | 0.0 | 0.00 | 0.00 | 0.00 | 77 | 1020.9 |
| 20260506123052 | 25 | 238 | 0.0 | 0.0 | 0.00 | 0.00 | 0.00 | 77 | 1020.7 |
| 20260506121554 | 26 | 238 | 0.0 | 0.0 | 0.00 | 0.00 | 0.00 | 80 | 1020.7 |
| 20260506120048 | 26 | 238 | 0.0 | 0.0 | 0.00 | 0.00 | 0.00 | 79 | 1020.5 |
| 20260506114535 | 26 | 238 | 0.0 | 0.0 | 0.00 | 0.00 | 0.00 | 79 | 1020.5 |
| 20260506113037 | 27 | 238 | 0.0 | 0.9 | 0.00 | 0.00 | 0.00 | 77 | 1020.4 |
| 20260506111533 | 27 | 238 | 0.0 | 0.0 | 0.00 | 0.00 | 0.00 | 74 | 1020.1 |
| 20260506110038 | 28 | 238 | 0.0 | 0.0 | 0.00 | 0.00 | 0.00 | 74 | 1019.9 |
| 20260506104528 | 28 | 238 | 0.0 | 0.0 | 0.00 | 0.00 | 0.00 | 72 | 1020.0 |
| 20260506103025 | 29 | 238 | 0.0 | 0.0 | 0.00 | 0.00 | 0.00 | 72 | 1019.9 |
| 20260506101526 | 29 | 238 | 0.0 | 0.9 | 0.00 | 0.00 | 0.00 | 71 | 1019.9 |
| 20260506100023 | 29 | 238 | 0.0 | 0.0 | 0.00 | 0.00 | 0.00 | 72 | 1019.8 |
| 20260506094506 | 29 | 238 | 0.0 | 0.0 | 0.00 | 0.00 | 0.00 | 72 | 1019.8 |
| 20260506093001 | 30 | 238 | 0.0 | 0.0 | 0.00 | 0.00 | 0.00 | 69 | 1019.7 |
| 20260506091548 | 30 | 238 | 0.0 | 0.0 | 0.00 | 0.00 | 0.00 | 69 | 1019.7 |
| 20260506090048 | 30 | 238 | 0.0 | 0.0 | 0.00 | 0.00 | 0.00 | 69 | 1019.6 |